Year,Month,Day,Hour,Minute,Value (Times are PST for barometer in hPa)
2012,12,17,00,00,979.04
2012,12,17,00,01,979.10
2012,12,17,00,02,979.14
2012,12,17,00,03,979.17
2012,12,17,00,04,979.17
2012,12,17,00,05,979.11
2012,12,17,00,06,979.11
2012,12,17,00,07,979.11
2012,12,17,00,08,979.14
2012,12,17,00,09,979.14
2012,12,17,00,10,979.11
2012,12,17,00,11,979.11
2012,12,17,00,12,979.01
2012,12,17,00,13,979.04
2012,12,17,00,14,979.04
2012,12,17,00,15,979.04
2012,12,17,00,16,979.04
2012,12,17,00,17,979.01
2012,12,17,00,18,979.04
2012,12,17,00,19,979.01
2012,12,17,00,20,979.04
2012,12,17,00,21,979.01
2012,12,17,00,22,979.01
2012,12,17,00,23,979.01
2012,12,17,00,24,979.01
2012,12,17,00,25,979.01
2012,12,17,00,26,979.04
2012,12,17,00,27,979.01
2012,12,17,00,28,979.04
2012,12,17,00,29,979.04
2012,12,17,00,30,979.04
2012,12,17,00,31,979.04
2012,12,17,00,32,979.04
2012,12,17,00,33,979.11
2012,12,17,00,34,979.11
2012,12,17,00,35,979.14
2012,12,17,00,36,979.17
2012,12,17,00,37,979.17
2012,12,17,00,38,979.17
2012,12,17,00,39,979.14
2012,12,17,00,40,979.14
2012,12,17,00,41,979.14
2012,12,17,00,42,979.11
2012,12,17,00,43,979.11
2012,12,17,00,44,979.14
2012,12,17,00,45,979.17
2012,12,17,00,46,979.14
2012,12,17,00,47,979.17
2012,12,17,00,48,979.17
2012,12,17,00,49,979.21
2012,12,17,00,50,979.24
2012,12,17,00,51,979.21
2012,12,17,00,52,979.24
2012,12,17,00,53,979.24
2012,12,17,00,54,979.24
2012,12,17,00,55,979.21
2012,12,17,00,56,979.21
2012,12,17,00,57,979.24
2012,12,17,00,58,979.24
2012,12,17,00,59,979.24
2012,12,17,01,00,979.28
2012,12,17,01,01,979.28
2012,12,17,01,02,979.28
2012,12,17,01,03,979.31
2012,12,17,01,04,979.34
2012,12,17,01,05,979.31
2012,12,17,01,06,979.34
2012,12,17,01,07,979.38
2012,12,17,01,08,979.38
2012,12,17,01,09,979.31
2012,12,17,01,10,979.28
2012,12,17,01,11,979.28
2012,12,17,01,12,979.28
2012,12,17,01,13,979.28
2012,12,17,01,14,979.28
2012,12,17,01,15,979.24
2012,12,17,01,16,979.28
2012,12,17,01,17,979.24
2012,12,17,01,18,979.28
2012,12,17,01,19,979.21
2012,12,17,01,20,979.24
2012,12,17,01,21,979.24
2012,12,17,01,22,979.28
2012,12,17,01,23,979.24
2012,12,17,01,24,979.21
2012,12,17,01,25,979.21
2012,12,17,01,26,979.24
2012,12,17,01,27,979.21
2012,12,17,01,28,979.24
2012,12,17,01,29,979.28
2012,12,17,01,30,979.28
2012,12,17,01,31,979.31
2012,12,17,01,32,979.38
2012,12,17,01,33,979.31
2012,12,17,01,34,979.34
2012,12,17,01,35,979.38
2012,12,17,01,36,979.45
2012,12,17,01,37,979.45
2012,12,17,01,38,979.48
2012,12,17,01,39,979.45
2012,12,17,01,40,979.48
2012,12,17,01,41,979.45
2012,12,17,01,42,979.45
2012,12,17,01,43,979.45
2012,12,17,01,44,979.48
2012,12,17,01,45,979.45
2012,12,17,01,46,979.48
2012,12,17,01,47,979.51
2012,12,17,01,48,979.51
2012,12,17,01,49,979.48
2012,12,17,01,50,979.48
2012,12,17,01,51,979.48
2012,12,17,01,52,979.48
2012,12,17,01,53,979.51
2012,12,17,01,54,979.45
2012,12,17,01,55,979.38
2012,12,17,01,56,979.34
2012,12,17,01,57,979.38
2012,12,17,01,58,979.38
2012,12,17,01,59,979.38
2012,12,17,02,00,979.41
2012,12,17,02,01,979.41
2012,12,17,02,02,979.48
2012,12,17,02,03,979.51
2012,12,17,02,04,979.48
2012,12,17,02,05,979.55
2012,12,17,02,06,979.58
2012,12,17,02,07,979.58
2012,12,17,02,08,979.61
2012,12,17,02,09,979.71
2012,12,17,02,10,979.72
2012,12,17,02,11,979.75
2012,12,17,02,12,979.75
2012,12,17,02,13,979.78
2012,12,17,02,14,979.82
2012,12,17,02,15,979.85
2012,12,17,02,16,979.85
2012,12,17,02,17,979.85
2012,12,17,02,18,979.89
2012,12,17,02,19,979.89
2012,12,17,02,20,979.92
2012,12,17,02,21,979.92
2012,12,17,02,22,979.95
2012,12,17,02,23,979.99
2012,12,17,02,24,979.99
2012,12,17,02,25,979.99
2012,12,17,02,26,980.06
2012,12,17,02,27,980.02
2012,12,17,02,28,980.06
2012,12,17,02,29,980.02
2012,12,17,02,30,980.02
2012,12,17,02,31,980.06
2012,12,17,02,32,980.02
2012,12,17,02,33,979.99
2012,12,17,02,34,979.99
2012,12,17,02,35,980.02
2012,12,17,02,36,980.09
2012,12,17,02,37,980.12
2012,12,17,02,38,980.16
2012,12,17,02,39,980.22
2012,12,17,02,40,980.26
2012,12,17,02,41,980.29
2012,12,17,02,42,980.26
2012,12,17,02,43,980.29
2012,12,17,02,44,980.29
2012,12,17,02,45,980.33
2012,12,17,02,46,980.33
2012,12,17,02,47,980.36
2012,12,17,02,48,980.43
2012,12,17,02,49,980.39
2012,12,17,02,50,980.43
2012,12,17,02,51,980.43
2012,12,17,02,52,980.50
2012,12,17,02,53,980.46
2012,12,17,02,54,980.50
2012,12,17,02,55,980.56
2012,12,17,02,56,980.63
2012,12,17,02,57,980.66
2012,12,17,02,58,980.73
2012,12,17,02,59,980.73
2012,12,17,03,00,980.77
2012,12,17,03,01,980.73
2012,12,17,03,02,980.77
2012,12,17,03,03,980.83
2012,12,17,03,04,980.80
2012,12,17,03,05,980.77
2012,12,17,03,06,980.83
2012,12,17,03,07,980.83
2012,12,17,03,08,980.97
2012,12,17,03,09,981.07
2012,12,17,03,10,981.04
2012,12,17,03,11,981.10
2012,12,17,03,12,981.14
2012,12,17,03,13,981.17
2012,12,17,03,14,981.24
2012,12,17,03,15,981.31
2012,12,17,03,16,981.41
2012,12,17,03,17,981.41
2012,12,17,03,18,981.48
2012,12,17,03,19,981.48
2012,12,17,03,20,981.55
2012,12,17,03,21,981.55
2012,12,17,03,22,981.58
2012,12,17,03,23,981.55
2012,12,17,03,24,981.65
2012,12,17,03,25,981.65
2012,12,17,03,26,981.65
2012,12,17,03,27,981.71
2012,12,17,03,28,981.75
2012,12,17,03,29,981.75
2012,12,17,03,30,981.82
2012,12,17,03,31,981.85
2012,12,17,03,32,981.88
2012,12,17,03,33,981.88
2012,12,17,03,34,981.95
2012,12,17,03,35,981.95
2012,12,17,03,36,981.95
2012,12,17,03,37,981.95
2012,12,17,03,38,982.02
2012,12,17,03,39,982.05
2012,12,17,03,40,982.09
2012,12,17,03,41,982.09
2012,12,17,03,42,982.18
2012,12,17,03,43,982.19
2012,12,17,03,44,982.15
2012,12,17,03,45,982.19
2012,12,17,03,46,982.26
2012,12,17,03,47,982.26
2012,12,17,03,48,982.32
2012,12,17,03,49,982.39
2012,12,17,03,50,982.39
2012,12,17,03,51,982.49
2012,12,17,03,52,982.49
2012,12,17,03,53,982.49
2012,12,17,03,54,982.53
2012,12,17,03,55,982.49
2012,12,17,03,56,982.56
2012,12,17,03,57,982.59
2012,12,17,03,58,982.63
2012,12,17,03,59,982.63
2012,12,17,04,00,982.63
2012,12,17,04,01,982.72
2012,12,17,04,02,982.73
2012,12,17,04,03,982.70
2012,12,17,04,04,982.76
2012,12,17,04,05,982.83
2012,12,17,04,06,982.90
2012,12,17,04,07,982.90
2012,12,17,04,08,982.97
2012,12,17,04,09,983.04
2012,12,17,04,10,983.07
2012,12,17,04,11,983.10
2012,12,17,04,12,983.10
2012,12,17,04,13,983.14
2012,12,17,04,14,983.20
2012,12,17,04,15,983.30
2012,12,17,04,16,983.34
2012,12,17,04,17,983.37
2012,12,17,04,18,983.41
2012,12,17,04,19,983.48
2012,12,17,04,20,983.48
2012,12,17,04,21,983.48
2012,12,17,04,22,983.51
2012,12,17,04,23,983.51
2012,12,17,04,24,983.54
2012,12,17,04,25,983.61
2012,12,17,04,26,983.61
2012,12,17,04,27,983.61
2012,12,17,04,28,983.68
2012,12,17,04,29,983.68
2012,12,17,04,30,983.71
2012,12,17,04,31,983.75
2012,12,17,04,32,983.75
2012,12,17,04,33,983.81
2012,12,17,04,34,983.85
2012,12,17,04,35,983.95
2012,12,17,04,36,983.95
2012,12,17,04,37,984.02
2012,12,17,04,38,984.08
2012,12,17,04,39,984.12
2012,12,17,04,40,984.12
2012,12,17,04,41,984.15
2012,12,17,04,42,984.19
2012,12,17,04,43,984.25
2012,12,17,04,44,984.25
2012,12,17,04,45,984.29
2012,12,17,04,46,984.29
2012,12,17,04,47,984.39
2012,12,17,04,48,984.42
2012,12,17,04,49,984.42
2012,12,17,04,50,984.49
2012,12,17,04,51,984.49
2012,12,17,04,52,984.56
2012,12,17,04,53,984.56
2012,12,17,04,54,984.59
2012,12,17,04,55,984.59
2012,12,17,04,56,984.66
2012,12,17,04,57,984.73
2012,12,17,04,58,984.76
2012,12,17,04,59,984.83
2012,12,17,05,00,984.83
2012,12,17,05,01,984.86
2012,12,17,05,02,984.90
2012,12,17,05,03,984.93
2012,12,17,05,04,984.97
2012,12,17,05,05,985.03
2012,12,17,05,06,985.03
2012,12,17,05,07,985.10
2012,12,17,05,08,985.13
2012,12,17,05,09,985.17
2012,12,17,05,10,985.17
2012,12,17,05,11,985.27
2012,12,17,05,12,985.30
2012,12,17,05,13,985.34
2012,12,17,05,14,985.30
2012,12,17,05,15,985.37
2012,12,17,05,16,985.44
2012,12,17,05,17,985.47
2012,12,17,05,18,985.54
2012,12,17,05,19,985.57
2012,12,17,05,20,985.61
2012,12,17,05,21,985.64
2012,12,17,05,22,985.68
2012,12,17,05,23,985.71
2012,12,17,05,24,985.74
2012,12,17,05,25,985.81
2012,12,17,05,26,985.78
2012,12,17,05,27,985.88
2012,12,17,05,28,985.85
2012,12,17,05,29,985.95
2012,12,17,05,30,985.91
2012,12,17,05,31,985.95
2012,12,17,05,32,985.91
2012,12,17,05,33,985.98
2012,12,17,05,34,986.05
2012,12,17,05,35,986.05
2012,12,17,05,36,986.12
2012,12,17,05,37,986.15
2012,12,17,05,38,986.15
2012,12,17,05,39,986.15
2012,12,17,05,40,986.18
2012,12,17,05,41,986.25
2012,12,17,05,42,986.32
2012,12,17,05,43,986.39
2012,12,17,05,44,986.46
2012,12,17,05,45,986.46
2012,12,17,05,46,986.49
2012,12,17,05,47,986.56
2012,12,17,05,48,986.56
2012,12,17,05,49,986.59
2012,12,17,05,50,986.59
2012,12,17,05,51,986.62
2012,12,17,05,52,986.62
2012,12,17,05,53,986.69
2012,12,17,05,54,986.62
2012,12,17,05,55,986.69
2012,12,17,05,56,986.76
2012,12,17,05,57,986.69
2012,12,17,05,58,986.83
2012,12,17,05,59,986.76
2012,12,17,06,00,986.79
2012,12,17,06,01,986.86
2012,12,17,06,02,986.90
2012,12,17,06,03,986.96
2012,12,17,06,04,986.96
2012,12,17,06,05,987.00
2012,12,17,06,06,987.03
2012,12,17,06,07,987.10
2012,12,17,06,08,987.10
2012,12,17,06,09,987.23
2012,12,17,06,10,987.27
2012,12,17,06,11,987.30
2012,12,17,06,12,987.30
2012,12,17,06,13,987.37
2012,12,17,06,14,987.44
2012,12,17,06,15,987.47
2012,12,17,06,16,987.51
2012,12,17,06,17,987.54
2012,12,17,06,18,987.57
2012,12,17,06,19,987.57
2012,12,17,06,20,987.57
2012,12,17,06,21,987.61
2012,12,17,06,22,987.64
2012,12,17,06,23,987.64
2012,12,17,06,24,987.71
2012,12,17,06,25,987.67
2012,12,17,06,26,987.71
2012,12,17,06,27,987.71
2012,12,17,06,28,987.78
2012,12,17,06,29,987.81
2012,12,17,06,30,987.84
2012,12,17,06,31,987.84
2012,12,17,06,32,987.91
2012,12,17,06,33,987.98
2012,12,17,06,34,988.01
2012,12,17,06,35,988.05
2012,12,17,06,36,988.08
2012,12,17,06,37,988.11
2012,12,17,06,38,988.15
2012,12,17,06,39,988.24
2012,12,17,06,40,988.25
2012,12,17,06,41,988.28
2012,12,17,06,42,988.32
2012,12,17,06,43,988.35
2012,12,17,06,44,988.45
2012,12,17,06,45,988.49
2012,12,17,06,46,988.55
2012,12,17,06,47,988.59
2012,12,17,06,48,988.68
2012,12,17,06,49,988.72
2012,12,17,06,50,988.76
2012,12,17,06,51,988.76
2012,12,17,06,52,988.83
2012,12,17,06,53,988.86
2012,12,17,06,54,988.93
2012,12,17,06,55,989.00
2012,12,17,06,56,989.03
2012,12,17,06,57,989.03
2012,12,17,06,58,989.06
2012,12,17,06,59,989.03
2012,12,17,07,00,989.12
2012,12,17,07,01,989.13
2012,12,17,07,02,989.20
2012,12,17,07,03,989.23
2012,12,17,07,04,989.37
2012,12,17,07,05,989.33
2012,12,17,07,06,989.40
2012,12,17,07,07,989.47
2012,12,17,07,08,989.47
2012,12,17,07,09,989.50
2012,12,17,07,10,989.50
2012,12,17,07,11,989.54
2012,12,17,07,12,989.57
2012,12,17,07,13,989.60
2012,12,17,07,14,989.57
2012,12,17,07,15,989.50
2012,12,17,07,16,989.50
2012,12,17,07,17,989.64
2012,12,17,07,18,989.57
2012,12,17,07,19,989.64
2012,12,17,07,20,989.81
2012,12,17,07,21,989.84
2012,12,17,07,22,989.84
2012,12,17,07,23,989.88
2012,12,17,07,24,989.91
2012,12,17,07,25,989.98
2012,12,17,07,26,989.98
2012,12,17,07,27,990.01
2012,12,17,07,28,990.04
2012,12,17,07,29,990.01
2012,12,17,07,30,990.08
2012,12,17,07,31,990.15
2012,12,17,07,32,990.08
2012,12,17,07,33,990.15
2012,12,17,07,34,990.15
2012,12,17,07,35,990.18
2012,12,17,07,36,990.25
2012,12,17,07,37,990.25
2012,12,17,07,38,990.34
2012,12,17,07,39,990.35
2012,12,17,07,40,990.35
2012,12,17,07,41,990.38
2012,12,17,07,42,990.38
2012,12,17,07,43,990.38
2012,12,17,07,44,990.42
2012,12,17,07,45,990.42
2012,12,17,07,46,990.45
2012,12,17,07,47,990.49
2012,12,17,07,48,990.49
2012,12,17,07,49,990.52
2012,12,17,07,50,990.55
2012,12,17,07,51,990.59
2012,12,17,07,52,990.62
2012,12,17,07,53,990.69
2012,12,17,07,54,990.65
2012,12,17,07,55,990.76
2012,12,17,07,56,990.85
2012,12,17,07,57,990.89
2012,12,17,07,58,990.82
2012,12,17,07,59,990.82
2012,12,17,08,00,990.92
2012,12,17,08,01,990.96
2012,12,17,08,02,990.96
2012,12,17,08,03,991.03
2012,12,17,08,04,990.99
2012,12,17,08,05,991.03
2012,12,17,08,06,991.06
2012,12,17,08,07,991.13
2012,12,17,08,08,991.20
2012,12,17,08,09,991.20
2012,12,17,08,10,991.20
2012,12,17,08,11,991.23
2012,12,17,08,12,991.36
2012,12,17,08,13,991.37
2012,12,17,08,14,991.33
2012,12,17,08,15,991.40
2012,12,17,08,16,991.37
2012,12,17,08,17,991.47
2012,12,17,08,18,991.50
2012,12,17,08,19,991.53
2012,12,17,08,20,991.57
2012,12,17,08,21,991.66
2012,12,17,08,22,991.67
2012,12,17,08,23,991.74
2012,12,17,08,24,991.74
2012,12,17,08,25,991.77
2012,12,17,08,26,991.81
2012,12,17,08,27,991.87
2012,12,17,08,28,991.91
2012,12,17,08,29,991.91
2012,12,17,08,30,991.82
2012,12,17,08,31,992.00
2012,12,17,08,32,991.98
2012,12,17,08,33,992.01
2012,12,17,08,34,992.08
2012,12,17,08,35,992.11
2012,12,17,08,36,992.21
2012,12,17,08,37,992.18
2012,12,17,08,38,992.28
2012,12,17,08,39,992.35
2012,12,17,08,40,992.31
2012,12,17,08,41,992.38
2012,12,17,08,42,992.42
2012,12,17,08,43,992.48
2012,12,17,08,44,992.62
2012,12,17,08,45,992.58
2012,12,17,08,46,992.68
2012,12,17,08,47,992.75
2012,12,17,08,48,992.72
2012,12,17,08,49,992.72
2012,12,17,08,50,992.75
2012,12,17,08,51,992.75
2012,12,17,08,52,992.79
2012,12,17,08,53,992.86
2012,12,17,08,54,992.96
2012,12,17,08,55,992.92
2012,12,17,08,56,992.96
2012,12,17,08,57,993.03
2012,12,17,08,58,993.09
2012,12,17,08,59,993.09
2012,12,17,09,00,993.16
2012,12,17,09,01,993.22
2012,12,17,09,02,993.23
2012,12,17,09,03,993.23
2012,12,17,09,04,993.35
2012,12,17,09,05,993.40
2012,12,17,09,06,993.49
2012,12,17,09,07,993.50
2012,12,17,09,08,993.53
2012,12,17,09,09,993.57
2012,12,17,09,10,993.63
2012,12,17,09,11,993.70
2012,12,17,09,12,993.74
2012,12,17,09,13,993.74
2012,12,17,09,14,993.77
2012,12,17,09,15,993.77
2012,12,17,09,16,993.84
2012,12,17,09,17,993.87
2012,12,17,09,18,993.97
2012,12,17,09,19,993.91
2012,12,17,09,20,994.01
2012,12,17,09,21,994.01
2012,12,17,09,22,994.07
2012,12,17,09,23,994.04
2012,12,17,09,24,994.11
2012,12,17,09,25,994.14
2012,12,17,09,26,994.14
2012,12,17,09,27,994.18
2012,12,17,09,28,994.11
2012,12,17,09,29,994.34
2012,12,17,09,30,994.35
2012,12,17,09,31,994.45
2012,12,17,09,32,994.45
2012,12,17,09,33,994.41
2012,12,17,09,34,994.48
2012,12,17,09,35,994.58
2012,12,17,09,36,994.52
2012,12,17,09,37,994.61
2012,12,17,09,38,994.72
2012,12,17,09,39,994.72
2012,12,17,09,40,994.68
2012,12,17,09,41,994.68
2012,12,17,09,42,994.84
2012,12,17,09,43,994.85
2012,12,17,09,44,994.73
2012,12,17,09,45,994.95
2012,12,17,09,46,995.02
2012,12,17,09,47,995.09
2012,12,17,09,48,995.12
2012,12,17,09,49,995.28
2012,12,17,09,50,995.20
2012,12,17,09,51,995.26
2012,12,17,09,52,995.23
2012,12,17,09,53,995.33
2012,12,17,09,54,995.33
2012,12,17,09,55,995.40
2012,12,17,09,56,995.43
2012,12,17,09,57,995.59
2012,12,17,09,58,995.53
2012,12,17,09,59,995.62
2012,12,17,10,00,995.63
2012,12,17,10,01,995.72
2012,12,17,10,02,995.67
2012,12,17,10,03,995.67
2012,12,17,10,04,995.67
2012,12,17,10,05,995.77
2012,12,17,10,06,995.77
2012,12,17,10,07,995.80
2012,12,17,10,08,995.80
2012,12,17,10,09,995.90
2012,12,17,10,10,995.90
2012,12,17,10,11,995.94
2012,12,17,10,12,996.03
2012,12,17,10,13,996.04
2012,12,17,10,14,996.11
2012,12,17,10,15,996.07
2012,12,17,10,16,996.16
2012,12,17,10,17,996.14
2012,12,17,10,18,996.23
2012,12,17,10,19,996.24
2012,12,17,10,20,996.28
2012,12,17,10,21,996.34
2012,12,17,10,22,996.31
2012,12,17,10,23,996.41
2012,12,17,10,24,996.48
2012,12,17,10,25,996.51
2012,12,17,10,26,996.51
2012,12,17,10,27,996.51
2012,12,17,10,28,996.58
2012,12,17,10,29,996.58
2012,12,17,10,30,996.58
2012,12,17,10,31,996.58
2012,12,17,10,32,996.65
2012,12,17,10,33,996.68
2012,12,17,10,34,996.72
2012,12,17,10,35,996.72
2012,12,17,10,36,996.75
2012,12,17,10,37,996.78
2012,12,17,10,38,996.75
2012,12,17,10,39,996.84
2012,12,17,10,40,996.78
2012,12,17,10,41,996.82
2012,12,17,10,42,996.85
2012,12,17,10,43,996.89
2012,12,17,10,44,996.99
2012,12,17,10,45,996.99
2012,12,17,10,46,996.99
2012,12,17,10,47,997.09
2012,12,17,10,48,997.16
2012,12,17,10,49,997.09
2012,12,17,10,50,997.05
2012,12,17,10,51,997.12
2012,12,17,10,52,997.32
2012,12,17,10,53,997.19
2012,12,17,10,54,997.32
2012,12,17,10,55,997.36
2012,12,17,10,56,997.39
2012,12,17,10,57,997.39
2012,12,17,10,58,997.55
2012,12,17,10,59,997.50
2012,12,17,11,00,997.46
2012,12,17,11,01,997.50
2012,12,17,11,02,997.53
2012,12,17,11,03,997.53
2012,12,17,11,04,997.69
2012,12,17,11,05,997.73
2012,12,17,11,06,997.70
2012,12,17,11,07,997.77
2012,12,17,11,08,997.86
2012,12,17,11,09,997.83
2012,12,17,11,10,997.96
2012,12,17,11,11,997.90
2012,12,17,11,12,997.97
2012,12,17,11,13,997.90
2012,12,17,11,14,997.90
2012,12,17,11,15,997.94
2012,12,17,11,16,998.03
2012,12,17,11,17,998.04
2012,12,17,11,18,998.04
2012,12,17,11,19,998.14
2012,12,17,11,20,998.05
2012,12,17,11,21,998.00
2012,12,17,11,22,998.16
2012,12,17,11,23,998.24
2012,12,17,11,24,998.21
2012,12,17,11,25,998.05
2012,12,17,11,26,998.10
2012,12,17,11,27,998.17
2012,12,17,11,28,998.17
2012,12,17,11,29,998.21
2012,12,17,11,30,998.30
2012,12,17,11,31,998.24
2012,12,17,11,32,998.27
2012,12,17,11,33,998.31
2012,12,17,11,34,998.34
2012,12,17,11,35,998.41
2012,12,17,11,36,998.38
2012,12,17,11,37,998.44
2012,12,17,11,38,998.44
2012,12,17,11,39,998.51
2012,12,17,11,40,998.44
2012,12,17,11,41,998.48
2012,12,17,11,42,998.48
2012,12,17,11,43,998.48
2012,12,17,11,44,998.58
2012,12,17,11,45,998.54
2012,12,17,11,46,998.58
2012,12,17,11,47,998.61
2012,12,17,11,48,998.65
2012,12,17,11,49,998.61
2012,12,17,11,50,998.65
2012,12,17,11,51,998.61
2012,12,17,11,52,998.67
2012,12,17,11,53,998.68
2012,12,17,11,54,998.71
2012,12,17,11,55,998.68
2012,12,17,11,56,998.78
2012,12,17,11,57,998.75
2012,12,17,11,58,998.78
2012,12,17,11,59,998.85
2012,12,17,12,00,998.88
2012,12,17,12,01,998.88
2012,12,17,12,02,998.95
2012,12,17,12,03,998.85
2012,12,17,12,04,998.88
2012,12,17,12,05,998.92
2012,12,17,12,06,998.99
2012,12,17,12,07,998.95
2012,12,17,12,08,998.92
2012,12,17,12,09,998.99
2012,12,17,12,10,999.05
2012,12,17,12,11,999.02
2012,12,17,12,12,999.12
2012,12,17,12,13,999.03
2012,12,17,12,14,999.05
2012,12,17,12,15,999.11
2012,12,17,12,16,999.15
2012,12,17,12,17,999.09
2012,12,17,12,18,999.18
2012,12,17,12,19,999.22
2012,12,17,12,20,999.22
2012,12,17,12,21,999.22
2012,12,17,12,22,999.28
2012,12,17,12,23,999.29
2012,12,17,12,24,999.22
2012,12,17,12,25,999.26
2012,12,17,12,26,999.29
2012,12,17,12,27,999.29
2012,12,17,12,28,999.26
2012,12,17,12,29,999.35
2012,12,17,12,30,999.32
2012,12,17,12,31,999.36
2012,12,17,12,32,999.39
2012,12,17,12,33,999.32
2012,12,17,12,34,999.26
2012,12,17,12,35,999.35
2012,12,17,12,36,999.36
2012,12,17,12,37,999.32
2012,12,17,12,38,999.36
2012,12,17,12,39,999.43
2012,12,17,12,40,999.39
2012,12,17,12,41,999.36
2012,12,17,12,42,999.36
2012,12,17,12,43,999.32
2012,12,17,12,44,999.32
2012,12,17,12,45,999.36
2012,12,17,12,46,999.43
2012,12,17,12,47,999.39
2012,12,17,12,48,999.43
2012,12,17,12,49,999.36
2012,12,17,12,50,999.39
2012,12,17,12,51,999.46
2012,12,17,12,52,999.39
2012,12,17,12,53,999.39
2012,12,17,12,54,999.48
2012,12,17,12,55,999.53
2012,12,17,12,56,999.53
2012,12,17,12,57,999.62
2012,12,17,12,58,999.63
2012,12,17,12,59,999.72
2012,12,17,13,00,999.80
2012,12,17,13,01,999.83
2012,12,17,13,02,999.71
2012,12,17,13,03,999.86
2012,12,17,13,04,999.74
2012,12,17,13,05,999.80
2012,12,17,13,06,999.64
2012,12,17,13,07,999.66
2012,12,17,13,08,999.73
2012,12,17,13,09,999.73
2012,12,17,13,10,999.80
2012,12,17,13,11,999.80
2012,12,17,13,12,999.96
2012,12,17,13,13,999.88
2012,12,17,13,14,999.83
2012,12,17,13,15,999.80
2012,12,17,13,16,999.80
2012,12,17,13,17,999.83
2012,12,17,13,18,999.87
2012,12,17,13,19,999.83
2012,12,17,13,20,999.89
2012,12,17,13,21,999.83
2012,12,17,13,22,999.96
2012,12,17,13,23,1000.03
2012,12,17,13,24,1000.00
2012,12,17,13,25,999.93
2012,12,17,13,26,1000.03
2012,12,17,13,27,1000.00
2012,12,17,13,28,1000.07
2012,12,17,13,29,1000.10
2012,12,17,13,30,1000.10
2012,12,17,13,31,1000.10
2012,12,17,13,32,1000.17
2012,12,17,13,33,1000.10
2012,12,17,13,34,1000.04
2012,12,17,13,35,1000.00
2012,12,17,13,36,1000.13
2012,12,17,13,37,1000.03
2012,12,17,13,38,1000.07
2012,12,17,13,39,1000.07
2012,12,17,13,40,1000.03
2012,12,17,13,41,1000.31
2012,12,17,13,42,1000.24
2012,12,17,13,43,1000.24
2012,12,17,13,44,1000.20
2012,12,17,13,45,1000.27
2012,12,17,13,46,1000.14
2012,12,17,13,47,1000.26
2012,12,17,13,48,1000.20
2012,12,17,13,49,1000.37
2012,12,17,13,50,1000.41
2012,12,17,13,51,1000.34
2012,12,17,13,52,1000.64
2012,12,17,13,53,1000.54
2012,12,17,13,54,1000.64
2012,12,17,13,55,1000.61
2012,12,17,13,56,1000.54
2012,12,17,13,57,1000.64
2012,12,17,13,58,1000.58
2012,12,17,13,59,1000.74
2012,12,17,14,00,1000.71
2012,12,17,14,01,1000.64
2012,12,17,14,02,1000.75
2012,12,17,14,03,1000.75
2012,12,17,14,04,1000.64
2012,12,17,14,05,1000.75
2012,12,17,14,06,1000.68
2012,12,17,14,07,1000.81
2012,12,17,14,08,1000.71
2012,12,17,14,09,1000.85
2012,12,17,14,10,1000.78
2012,12,17,14,11,1000.78
2012,12,17,14,12,1000.85
2012,12,17,14,13,1000.88
2012,12,17,14,14,1000.92
2012,12,17,14,15,1000.92
2012,12,17,14,16,1000.88
2012,12,17,14,17,1000.95
2012,12,17,14,18,1000.95
2012,12,17,14,19,1000.98
2012,12,17,14,20,1000.98
2012,12,17,14,21,1001.02
2012,12,17,14,22,1001.02
2012,12,17,14,23,1001.22
2012,12,17,14,24,1001.22
2012,12,17,14,25,1001.12
2012,12,17,14,26,1001.22
2012,12,17,14,27,1001.22
2012,12,17,14,28,1001.36
2012,12,17,14,29,1001.36
2012,12,17,14,30,1001.42
2012,12,17,14,31,1001.42
2012,12,17,14,32,1001.49
2012,12,17,14,33,1001.59
2012,12,17,14,34,1001.42
2012,12,17,14,35,1001.49
2012,12,17,14,36,1001.62
2012,12,17,14,37,1001.63
2012,12,17,14,38,1001.63
2012,12,17,14,39,1001.63
2012,12,17,14,40,1001.59
2012,12,17,14,41,1001.69
2012,12,17,14,42,1001.69
2012,12,17,14,43,1001.69
2012,12,17,14,44,1001.69
2012,12,17,14,45,1001.66
2012,12,17,14,46,1001.69
2012,12,17,14,47,1001.66
2012,12,17,14,48,1001.66
2012,12,17,14,49,1001.63
2012,12,17,14,50,1001.63
2012,12,17,14,51,1001.73
2012,12,17,14,52,1001.76
2012,12,17,14,53,1001.80
2012,12,17,14,54,1001.93
2012,12,17,14,55,1001.97
2012,12,17,14,56,1001.93
2012,12,17,14,57,1001.97
2012,12,17,14,58,1001.90
2012,12,17,14,59,1002.00
2012,12,17,15,00,1002.03
2012,12,17,15,01,1002.00
2012,12,17,15,02,1002.10
2012,12,17,15,03,1002.17
2012,12,17,15,04,1002.20
2012,12,17,15,05,1002.17
2012,12,17,15,06,1002.17
2012,12,17,15,07,1002.20
2012,12,17,15,08,1002.24
2012,12,17,15,09,1002.27
2012,12,17,15,10,1002.27
2012,12,17,15,11,1002.27
2012,12,17,15,12,1002.34
2012,12,17,15,13,1002.44
2012,12,17,15,14,1002.51
2012,12,17,15,15,1002.44
2012,12,17,15,16,1002.51
2012,12,17,15,17,1002.71
2012,12,17,15,18,1002.61
2012,12,17,15,19,1002.51
2012,12,17,15,20,1002.54
2012,12,17,15,21,1002.57
2012,12,17,15,22,1002.64
2012,12,17,15,23,1002.64
2012,12,17,15,24,1002.68
2012,12,17,15,25,1002.71
2012,12,17,15,26,1002.71
2012,12,17,15,27,1002.71
2012,12,17,15,28,1002.68
2012,12,17,15,29,1002.74
2012,12,17,15,30,1002.78
2012,12,17,15,31,1002.74
2012,12,17,15,32,1002.74
2012,12,17,15,33,1002.74
2012,12,17,15,34,1002.74
2012,12,17,15,35,1002.78
2012,12,17,15,36,1002.78
2012,12,17,15,37,1002.81
2012,12,17,15,38,1002.85
2012,12,17,15,39,1002.91
2012,12,17,15,40,1002.85
2012,12,17,15,41,1002.88
2012,12,17,15,42,1002.88
2012,12,17,15,43,1002.88
2012,12,17,15,44,1002.98
2012,12,17,15,45,1003.12
2012,12,17,15,46,1002.98
2012,12,17,15,47,1003.01
2012,12,17,15,48,1003.12
2012,12,17,15,49,1003.05
2012,12,17,15,50,1003.08
2012,12,17,15,51,1003.08
2012,12,17,15,52,1003.08
2012,12,17,15,53,1003.01
2012,12,17,15,54,1003.08
2012,12,17,15,55,1003.05
2012,12,17,15,56,1003.12
2012,12,17,15,57,1003.12
2012,12,17,15,58,1003.15
2012,12,17,15,59,1003.18
2012,12,17,16,00,1003.18
2012,12,17,16,01,1003.22
2012,12,17,16,02,1003.22
2012,12,17,16,03,1003.25
2012,12,17,16,04,1003.29
2012,12,17,16,05,1003.25
2012,12,17,16,06,1003.32
2012,12,17,16,07,1003.29
2012,12,17,16,08,1003.22
2012,12,17,16,09,1003.22
2012,12,17,16,10,1003.15
2012,12,17,16,11,1003.29
2012,12,17,16,12,1003.32
2012,12,17,16,13,1003.22
2012,12,17,16,14,1003.22
2012,12,17,16,15,1003.32
2012,12,17,16,16,1003.32
2012,12,17,16,17,1003.35
2012,12,17,16,18,1003.35
2012,12,17,16,19,1003.46
2012,12,17,16,20,1003.39
2012,12,17,16,21,1003.49
2012,12,17,16,22,1003.42
2012,12,17,16,23,1003.42
2012,12,17,16,24,1003.39
2012,12,17,16,25,1003.42
2012,12,17,16,26,1003.39
2012,12,17,16,27,1003.46
2012,12,17,16,28,1003.42